Back to catalog

DMSP 5D-2 F13 DEB

AlivePO
NORAD 40436·DEBRIS·🇺🇸 United States

Launched Mar 24, 1995 from Vandenberg Space Force Base

Loading…

Next Passes (next 24 hours)

TLE

FreshSource: Space-Track

Epoch: Sep 12, 2026, 03:53 UTC

1 40436U 95015AN  26255.16217779  .00000283  00000-0  29877-3 0  9996
2 40436  98.8594 327.3321 0227867 256.9679 100.5943 13.71689654576201

Track DMSP 5D-2 F13 DEB in real time with AllMySat

Download on the App Store